Snowfall_Accumulation
0.0 0.0 0.0 0.0 0.0 0.0 0.0 0.0 0.0 0.0 0.0 0.0 0.0 0.0 0.0 0.0 0.0 0.0 0.0 0.0 0.0 0.0 0.0 0.0 0.0 0.0 0.4 0.2 0.2 0.2 0.3 0.5 1.4 0.7 0.5 0.6 0.7 0.6 0.3 0.2 0.3 0.1 0.1
0.0 0.0 0.0 0.0 0.0 0.0 0.0 0.0 0.0 0.0 0.0 0.0 0.0 0.0 0.0 0.0 0.0 0.0 0.0 0.0 0.0 0.0 0.0 0.0 0.1 0.0 0.2 0.1 0.4 0.3 0.5 0.4 1.0 1.5 0.9 2.2 2.0 0.9 0.8 0.5 0.2 0.0 0.4
0.0 0.0 0.0 0.0 0.0 0.3 1.1 0.3 0.1 0.5 0.5 0.1 0.0 0.0 0.0 0.0 0.0 0.0 0.0 0.0 0.0 0.0 0.0 0.1 0.1 0.3 0.5 0.7 0.5 0.6 0.7 0.3 0.8 2.0 3.4 2.9 4.4 3.7 3.9 2.8 1.7 0.8 0.1
0.0 0.0 0.0 0.1 0.1 0.5 1.6 3.1 2.9 1.3 0.9 0.6 0.3 0.7 0.7 0.5 0.1 0.1 0.0 0.0 0.0 0.0 0.0 0.0 0.1 0.4 1.8 1.8 0.6 0.6 0.4 1.1 1.5 2.3 3.1 4.8 4.2 5.1 3.2 3.6 4.5 2.8 2.4
0.1 1.2 3.0 1.4 1.2 2.7 4.8 5.1 4.4 2.9 2.0 2.6 2.3 1.6 1.2 0.2 0.2 0.1 0.0 0.0 0.1 0.1 0.1 0.0 0.0 0.1 nan nan 1.3 0.8 0.8 1.7 2.7 2.9 4.4 4.0 3.9 4.7 4.5 4.0 4.5 3.9 4.4
1.7 5.7 4.7 5.0 4.5 5.0 7.6 6.9 5.9 5.0 4.7 3.8 2.7 2.1 1.5 0.0 nan nan 0.0 0.0 0.1 0.1 0.2 0.1 0.0 0.0 0.1 nan nan nan nan 2.4 3.0 3.9 4.0 3.6 3.3 3.5 3.6 4.0 3.9 5.4 6.7
5.2 7.2 8.0 8.7 7.0 7.7 7.1 7.0 6.2 5.1 3.8 4.8 3.5 1.6 1.6 0.3 nan nan nan 0.1 0.2 0.1 0.1 0.1 0.1 0.0 0.1 0.2 nan nan nan nan nan 1.5 2.8 3.1 2.9 2.3 1.8 2.8 3.0 3.1 3.7
6.8 7.8 7.5 8.2 7.2 6.4 6.7 6.5 6.3 3.9 4.5 2.8 3.0 2.6 1.7 1.1 nan nan nan 0.3 0.4 0.6 0.3 0.2 0.1 0.1 0.1 0.2 0.4 1.0 1.5 1.9 1.8 1.4 1.7 1.7 1.4 1.0 1.0 1.1 2.3 3.0 4.2
8.3 7.8 7.6 6.5 8.1 7.5 7.5 7.4 4.6 2.6 1.6 2.5 2.4 2.6 1.4 3.1 nan nan 0.4 0.9 0.7 1.3 1.4 0.8 0.5 0.4 nan nan 0.4 1.4 1.9 2.2 nan nan nan nan nan nan nan 2.7 10.3 13.4 9.3
6.4 6.7 6.4 5.9 5.5 7.0 4.6 5.7 5.4 2.5 2.7 1.9 1.7 1.9 1.4 1.9 nan nan nan 1.2 1.2 2.3 2.0 1.8 1.7 0.5 nan nan 1.0 1.9 4.6 4.4 3.3 3.9 2.6 1.5 nan nan nan 1.5 3.7 10.5 7.7
3.0 3.7 4.4 3.6 3.6 2.9 2.1 1.5 2.0 2.3 2.4 2.8 2.5 1.7 2.4 1.5 2.1 nan nan 1.9 3.5 3.3 3.0 3.7 2.6 nan nan nan nan 2.3 3.7 3.8 4.8 5.4 6.8 6.9 5.1 2.8 3.8 3.6 3.5 4.8 8.0
1.4 1.6 2.1 2.2 1.4 1.2 1.1 0.6 1.5 0.9 0.8 2.2 1.9 2.3 2.0 1.3 nan nan nan nan nan 2.7 2.8 3.0 2.9 nan nan nan 1.8 nan nan 2.5 6.1 7.2 6.6 7.0 8.7 7.7 6.0 7.0 6.9 6.3 6.3
1.6 3.0 2.6 2.1 1.4 1.2 0.9 0.4 1.4 0.3 1.2 0.4 1.8 1.9 1.6 1.9 1.5 nan nan nan nan 1.5 1.3 2.0 nan nan nan nan nan nan 1.2 4.8 6.5 8.1 7.1 6.7 6.1 5.8 4.8 6.0 5.6 5.1 5.4
3.4 2.0 1.2 1.3 0.7 0.8 1.2 1.3 1.9 2.0 2.1 2.2 2.7 2.7 1.7 1.8 1.3 1.0 1.3 0.6 0.5 1.8 nan 1.6 nan 1.1 nan nan 1.5 1.5 3.2 4.2 4.9 5.9 6.9 6.2 5.4 7.5 8.4 5.6 6.6 6.1 8.7
3.0 1.3 1.0 1.7 1.9 1.2 1.2 1.7 1.5 0.5 1.7 4.4 5.5 4.1 6.1 5.7 3.0 0.9 2.7 3.1 2.9 3.4 4.4 6.4 6.0 4.8 4.9 4.2 4.3 4.6 4.7 5.2 6.3 6.7 7.8 8.5 9.1 8.5 8.9 5.8 6.7 8.0 9.2
2.1 3.0 2.6 2.6 2.3 2.0 2.1 2.2 nan nan nan nan nan 2.4 3.6 nan nan nan nan nan nan nan 11.9 12.9 7.4 6.1 6.1 6.1 7.6 7.6 6.9 6.8 7.2 8.7 9.7 9.4 10.7 9.9 10.4 10.7 9.2 10.1 10.9
5.0 3.5 4.4 3.9 3.6 3.7 3.8 4.1 6.3 3.1 nan nan nan nan nan nan nan nan nan nan nan nan 17.9 10.2 9.7 7.4 7.2 7.0 7.6 8.3 10.0 8.7 7.1 9.7 9.6 10.6 11.5 11.7 12.3 12.5 10.6 9.6 12.4
5.0 2.1 4.4 4.2 3.9 4.5 4.6 4.7 5.1 6.7 8.3 6.4 nan nan nan nan nan nan nan nan 16.3 nan 12.6 15.0 14.8 11.7 10.0 9.5 8.5 10.7 10.8 9.7 9.3 9.5 10.6 13.5 15.3 16.2 16.2 15.7 12.9 14.6 14.3
6.4 4.9 5.4 5.1 4.8 5.1 6.3 5.4 5.3 6.7 7.5 9.0 9.4 7.5 3.6 nan nan nan nan 10.6 15.8 14.6 14.2 14.5 11.8 11.9 10.6 10.7 9.9 10.9 13.1 14.2 12.5 14.7 15.2 18.1 17.3 18.0 18.9 15.0 13.4 8.5 9.1
8.9 3.8 5.7 8.6 8.2 7.7 6.6 9.3 8.8 9.4 11.3 12.1 11.8 10.2 11.3 11.7 14.8 14.0 10.2 13.7 15.6 14.9 13.5 14.9 14.3 15.7 16.6 15.8 15.0 13.8 17.6 19.5 18.5 16.7 16.3 17.0 17.7 19.0 17.2 19.7 17.8 16.5 16.4
13.4 12.2 4.0 12.1 13.2 13.3 13.2 12.5 12.0 14.7 13.7 15.0 12.6 10.5 nan 14.7 18.0 15.9 16.6 15.1 15.3 16.7 15.9 16.3 16.8 20.8 20.5 22.5 19.7 19.5 21.0 16.1 18.4 19.5 18.9 19.5 21.6 27.1 18.5 15.6 18.8 19.4 18.2
15.9 16.8 16.9 17.8 14.7 15.7 17.0 14.4 15.9 16.0 16.4 15.5 14.3 13.5 nan 13.2 14.2 15.3 15.6 17.3 19.2 18.6 20.3 25.7 24.8 25.4 22.5 21.5 20.1 19.4 19.3 22.4 23.0 22.3 19.5 20.6 23.7 22.2 22.5 19.4 19.4 17.9 20.4
15.7 15.1 15.8 16.3 15.8 7.7 17.2 19.3 19.3 19.6 19.4 20.4 19.5 20.7 20.9 21.1 19.1 18.5 21.5 21.8 18.8 18.3 20.4 21.6 20.9 20.7 17.9 18.9 16.6 16.4 20.1 22.4 22.4 27.4 23.6 23.5 23.8 25.5 24.2 23.4 21.9 24.8 23.4
15.8 15.9 15.9 19.0 18.6 17.8 19.1 19.7 18.5 7.7 20.6 21.9 27.1 25.5 21.8 24.1 26.8 21.2 20.4 20.8 18.4 24.6 20.0 20.7 18.4 18.2 18.4 22.3 24.9 23.5 24.7 25.4 27.5 28.8 28.4 24.4 23.7 20.2 23.2 25.2 22.2 21.5 20.4
20.0 19.4 19.2 18.6 22.4 20.7 20.1 22.1 19.8 22.7 24.5 22.4 25.0 22.5 23.0 22.6 23.6 27.1 25.0 21.8 21.7 19.8 18.0 17.4 17.0 17.3 17.6 18.0 21.1 22.6 21.0 5.2 16.0 5.6 28.2 23.9 25.6 25.1 25.1 23.5 22.3 21.3 19.8
19.7 20.4 20.8 21.2 21.2 21.9 22.2 21.9 22.1 20.2 22.5 22.9 22.8 23.7 22.6 22.9 22.8 24.1 23.8 23.7 20.3 19.2 18.4 18.3 17.9 17.1 16.6 16.5 16.4 7.2 4.9 4.5 21.5 5.0 24.8 25.7 25.8 24.1 23.9 23.8 22.8 22.1 19.8
Water_Equivalent
0.00 0.00 0.00 0.00 0.00 0.00 0.00 0.00 0.00 0.00 0.00 0.00 0.00 0.00 0.00 0.00 0.00 0.00 0.00 0.00 0.00 0.00 0.00 0.00 0.00 0.01 0.09 0.05 0.04 0.04 0.06 0.08 0.33 0.24 0.18 0.16 0.16 0.15 0.07 0.07 0.11 0.03 0.06
0.00 0.00 0.00 0.00 0.00 0.00 0.00 0.00 0.00 0.00 0.00 0.00 0.00 0.00 0.00 0.00 0.00 0.00 0.00 0.00 0.00 0.00 0.00 0.01 0.02 0.00 0.03 0.02 0.10 0.06 0.08 0.07 0.26 0.34 0.25 0.76 0.59 0.23 0.18 0.11 0.05 0.00 0.14
0.00 0.00 0.00 0.01 0.01 0.12 0.40 0.13 0.03 0.18 0.18 0.02 0.00 0.00 0.01 0.01 0.01 0.00 0.00 0.00 0.00 0.00 0.00 0.02 0.03 0.07 0.10 0.17 0.12 0.15 0.18 0.08 0.21 0.58 1.01 0.88 1.30 1.09 1.12 0.83 0.43 0.18 0.03
0.00 0.01 0.02 0.03 0.03 0.17 0.58 1.17 1.11 0.53 0.34 0.23 0.11 0.26 0.30 0.19 0.03 0.05 0.00 0.01 0.02 0.02 0.01 0.01 0.01 0.08 0.30 0.31 0.14 0.13 0.09 0.28 0.38 0.62 0.86 1.14 1.01 1.21 0.89 0.86 1.05 0.75 0.67
0.02 0.40 0.92 0.45 0.42 0.85 1.46 1.54 1.36 1.03 0.74 0.93 0.80 0.55 0.40 0.09 0.04 0.02 0.01 0.01 0.02 0.03 0.04 0.01 0.01 0.03 nan nan 0.30 0.19 0.19 0.37 0.66 0.71 0.92 0.83 0.78 0.95 0.92 0.95 1.04 0.92 1.03
0.52 1.42 1.33 1.48 1.37 1.33 1.86 1.47 1.30 1.10 1.28 1.02 0.77 0.61 0.44 0.02 nan nan 0.01 0.01 0.02 0.03 0.06 0.04 0.02 0.01 0.02 nan nan nan nan 0.45 0.58 0.81 0.79 0.64 0.54 0.70 0.78 0.85 0.83 1.19 1.30
1.27 1.96 2.18 2.21 1.53 1.62 1.53 1.53 1.24 1.01 0.97 1.10 0.79 0.41 0.44 0.10 nan nan nan 0.05 0.05 0.04 0.04 0.04 0.03 0.01 0.03 0.04 nan nan nan nan nan 0.29 0.46 0.52 0.47 0.41 0.34 0.50 0.57 0.67 0.76
1.62 1.80 1.74 1.88 1.48 1.35 1.32 1.23 1.41 0.95 1.16 0.71 0.80 0.66 0.44 0.41 nan nan nan 0.09 0.11 0.16 0.08 0.07 0.04 0.04 0.03 0.05 0.08 0.20 0.30 0.36 0.34 0.27 0.31 0.31 0.26 0.20 0.19 0.22 0.42 0.53 0.83
1.76 1.64 1.63 1.38 1.63 1.36 1.26 1.37 0.95 0.53 0.33 0.50 0.58 0.61 0.35 0.84 nan nan 0.10 0.25 0.18 0.38 0.42 0.26 0.16 0.12 nan nan 0.08 0.29 0.37 0.40 nan nan nan nan nan nan nan 0.68 2.47 3.05 1.95
1.21 1.31 1.29 1.19 1.13 1.12 0.77 0.93 1.10 0.55 0.57 0.44 0.35 0.40 0.42 0.45 nan nan nan 0.33 0.28 0.55 0.50 0.50 0.55 0.13 nan nan 0.27 0.41 0.88 0.81 0.59 0.81 0.48 0.27 nan nan nan 0.26 0.81 2.27 1.58
0.54 0.68 0.79 0.67 0.68 0.55 0.39 0.30 0.34 0.39 0.41 0.47 0.38 0.32 0.44 0.35 0.47 nan nan 0.45 0.82 0.70 0.66 0.79 0.63 nan nan nan nan 0.54 0.69 0.70 0.91 0.94 1.17 1.29 0.91 0.50 0.70 0.63 0.57 0.92 1.65
0.23 0.26 0.34 0.38 0.24 0.24 0.24 0.11 0.26 0.14 0.13 0.29 0.28 0.45 0.41 0.22 nan nan nan nan nan 0.56 0.51 0.61 0.67 nan nan nan 0.54 nan nan 0.71 1.38 1.48 1.28 1.16 1.23 1.10 0.88 1.00 0.86 0.87 0.92
0.29 0.59 0.50 0.37 0.28 0.22 0.22 0.09 0.39 0.07 0.30 0.09 0.38 0.40 0.34 0.37 0.34 nan nan nan nan 0.36 0.31 0.40 nan nan nan nan nan nan 0.39 1.08 1.37 1.62 1.18 0.93 0.83 0.82 0.66 0.84 0.69 0.60 0.61
0.72 0.34 0.18 0.23 0.16 0.15 0.33 0.35 0.53 0.48 0.44 0.46 0.57 0.56 0.39 0.39 0.28 0.27 0.41 0.22 0.17 0.49 nan 0.43 nan 0.30 nan nan 0.43 0.43 0.67 0.84 0.88 1.02 1.05 0.84 0.80 1.09 1.14 0.82 0.99 0.89 1.30
0.49 0.17 0.17 0.34 0.38 0.23 0.23 0.42 0.35 0.12 0.40 0.97 1.27 0.89 1.21 1.15 0.60 0.21 0.74 0.88 0.84 0.90 1.20 1.47 1.28 0.95 0.93 0.81 0.93 0.95 0.90 0.96 1.10 1.13 1.21 1.22 1.26 1.19 1.20 0.88 0.93 1.22 1.43
0.26 0.45 0.44 0.46 0.41 0.35 0.37 0.41 nan nan nan nan nan 0.66 1.05 nan nan nan nan nan nan nan 2.83 2.62 1.26 1.01 0.91 0.93 1.18 1.10 1.06 1.13 1.09 1.31 1.45 1.39 1.50 1.33 1.37 1.49 1.34 1.44 1.45
0.68 0.41 0.59 0.53 0.49 0.55 0.60 0.66 0.86 0.57 nan nan nan nan nan nan nan nan nan nan nan nan 4.14 1.93 1.61 1.16 1.16 1.09 1.17 1.10 1.24 1.08 0.86 1.39 1.31 1.42 1.55 1.64 1.80 1.63 1.37 1.27 1.73
0.65 0.70 0.67 0.62 0.61 0.70 0.74 0.77 0.87 1.06 1.20 0.95 nan nan nan nan nan nan nan nan 3.85 nan 2.85 2.98 2.57 2.06 1.67 1.55 1.31 1.38 1.36 1.35 1.30 1.30 1.41 1.93 2.23 2.40 2.28 2.28 1.74 2.08 1.98
0.76 0.62 0.71 0.70 0.67 0.75 0.93 0.77 0.81 0.94 1.02 1.24 1.23 1.25 0.97 nan nan nan nan 2.40 3.20 2.76 2.70 2.79 2.28 2.17 1.78 1.89 1.78 2.06 1.82 1.95 1.81 2.36 2.42 2.73 2.54 2.72 2.76 2.09 1.77 1.55 1.63
1.00 0.99 0.87 1.11 1.03 0.96 0.77 1.10 0.99 1.07 1.30 1.42 1.40 1.21 1.92 2.26 2.86 2.91 2.32 3.25 3.37 2.99 2.52 2.73 2.71 3.04 3.20 3.00 2.93 2.71 2.84 3.07 2.83 2.78 2.72 2.76 2.71 2.93 2.23 2.85 2.54 2.20 2.38
1.58 1.38 1.31 1.34 1.54 1.58 1.58 1.42 1.32 1.73 1.56 1.77 1.43 1.33 nan 2.38 2.49 2.68 2.97 2.76 3.07 3.33 2.78 3.00 3.15 4.07 4.19 4.67 3.93 3.85 3.55 2.29 2.83 3.08 3.24 3.28 3.31 4.21 2.66 2.03 2.68 2.83 2.66
1.83 1.95 1.96 2.08 1.56 1.70 1.96 1.51 1.72 1.74 1.75 1.61 1.44 1.56 nan 1.90 2.10 2.17 2.42 3.00 3.59 3.67 4.10 4.84 4.75 5.12 4.52 4.21 3.81 3.60 3.05 3.46 3.70 3.49 2.86 3.04 3.64 3.29 3.30 2.54 2.63 2.34 2.88
1.64 1.47 1.60 1.64 1.59 1.70 1.83 2.19 2.08 2.10 2.00 2.20 2.06 2.14 2.36 2.76 2.58 2.55 3.43 3.66 3.05 2.94 3.38 3.70 3.50 3.41 3.09 3.41 2.97 2.83 3.09 3.32 3.35 4.44 3.29 3.33 3.30 3.74 3.44 3.20 2.90 3.33 3.17
1.52 1.54 1.54 2.04 1.90 1.70 1.97 2.08 1.86 1.83 2.09 2.29 3.34 2.91 2.12 2.59 3.38 2.61 2.65 3.03 2.60 4.03 3.03 3.27 2.78 2.69 2.84 4.02 4.97 4.78 5.12 5.39 5.24 4.88 4.48 3.26 3.15 2.80 2.95 3.39 2.78 2.71 2.37
2.02 1.82 1.83 1.72 2.47 2.08 1.95 2.34 1.83 2.42 2.79 2.34 2.80 2.22 2.28 2.18 2.37 3.16 3.00 2.61 2.86 2.66 2.39 2.37 2.39 2.44 2.47 2.56 3.35 4.13 4.25 1.71 3.20 1.85 4.10 3.06 3.46 3.43 3.31 2.91 2.74 2.48 2.23
1.75 1.86 1.93 1.99 1.97 2.14 2.23 2.18 2.25 1.88 2.31 2.43 2.33 2.42 2.15 2.17 2.19 2.55 2.43 2.48 2.13 2.22 2.29 2.43 2.44 2.28 2.15 2.26 2.32 1.96 1.62 1.49 3.59 1.64 3.55 3.09 3.24 2.92 2.87 2.88 2.69 2.58 2.18
SL_Ratio
nan nan nan nan nan nan nan nan nan nan nan nan nan nan nan nan nan nan nan nan nan nan nan 4.0 5.0 4.6 4.3 4.0 4.7 5.3 5.4 5.6 4.2 2.8 3.1 3.8 4.2 3.9 4.1 2.8 2.5 2.4 2.5
nan nan nan nan nan nan 2.5 2.5 nan 2.5 nan nan nan nan nan nan nan 7.5 nan nan nan 5.0 5.0 4.7 4.4 5.0 5.5 5.1 4.0 5.2 5.5 5.2 4.0 4.4 3.7 2.9 3.4 3.9 4.2 4.4 5.0 5.0 2.5
nan nan 0.0 2.5 2.4 2.8 2.8 2.7 2.6 2.5 2.6 2.7 3.3 5.0 2.9 2.7 3.7 5.0 nan 3.3 nan 5.0 6.7 5.2 4.8 5.0 5.4 4.0 4.3 3.8 4.0 4.5 3.9 3.5 3.4 3.3 3.4 3.4 3.5 3.4 3.8 4.3 4.4
2.5 2.5 2.8 2.8 2.8 2.8 2.7 2.7 2.6 2.5 2.5 2.5 2.5 2.5 2.5 2.5 4.1 2.7 2.5 2.8 2.6 2.7 3.3 3.3 5.2 5.5 5.9 5.8 4.5 4.4 4.7 3.8 3.8 3.6 3.6 4.3 4.2 4.2 3.6 4.2 4.3 3.7 3.6
2.6 3.1 3.3 3.0 3.0 3.2 3.3 3.3 3.2 2.8 2.7 2.8 2.8 3.0 2.9 2.5 5.5 3.9 2.5 2.9 2.9 2.6 2.6 2.5 3.6 3.9 nan nan 4.5 4.4 4.5 4.5 4.1 4.0 4.8 4.8 5.0 5.0 4.8 4.2 4.3 4.2 4.2
3.3 4.1 3.6 3.4 3.3 3.7 4.1 4.7 4.5 4.5 3.7 3.7 3.6 3.4 3.4 2.4 nan nan 3.0 3.1 3.1 2.8 3.1 2.8 2.5 3.4 5.0 nan nan nan nan 5.3 5.2 4.8 5.1 5.7 6.1 4.9 4.6 4.7 4.7 4.5 5.2
4.1 3.7 3.7 3.9 4.6 4.7 4.6 4.6 5.0 5.1 3.9 4.3 4.4 3.8 3.6 3.0 nan nan nan 2.7 3.3 3.0 3.3 3.4 3.0 2.5 2.9 4.5 nan nan nan nan nan 5.2 6.1 6.0 6.2 5.7 5.4 5.6 5.3 4.7 4.9
4.2 4.3 4.3 4.3 4.9 4.7 5.1 5.2 4.5 4.2 3.9 4.0 3.8 3.9 3.8 2.7 nan nan nan 3.1 3.6 3.5 3.3 3.5 3.7 3.7 3.8 4.8 5.1 5.1 5.1 5.3 5.4 5.2 5.6 5.7 5.4 5.1 5.3 5.1 5.4 5.7 5.0
4.7 4.7 4.7 4.7 5.0 5.5 6.0 5.4 4.9 5.0 4.9 5.0 4.1 4.2 4.1 3.7 nan nan 3.6 3.7 4.0 3.6 3.4 3.0 3.3 3.5 nan nan 4.5 5.0 5.1 5.6 nan nan nan nan nan nan nan 3.9 4.2 4.4 4.8
5.3 5.1 4.9 4.9 4.9 6.2 5.9 6.2 4.9 4.5 4.7 4.3 4.9 4.7 3.4 4.1 nan nan nan 3.5 4.3 4.2 4.0 3.7 3.0 3.7 nan nan 3.8 4.7 5.2 5.4 5.6 4.9 5.4 5.4 nan nan nan 5.7 4.6 4.6 4.9
5.6 5.5 5.5 5.4 5.3 5.3 5.3 5.1 5.8 6.0 5.7 6.0 6.6 5.3 5.5 4.3 4.4 nan nan 4.2 4.2 4.7 4.5 4.6 4.1 nan nan nan nan 4.2 5.3 5.4 5.3 5.7 5.8 5.3 5.6 5.7 5.5 5.8 6.2 5.2 4.8
6.0 6.0 6.2 5.7 5.7 5.1 4.9 5.4 5.8 6.1 6.1 7.6 6.7 5.0 4.8 5.9 nan nan nan nan nan 4.8 5.6 5.0 4.4 nan nan nan 3.3 nan nan 3.5 4.4 4.9 5.1 6.0 7.1 7.0 6.9 7.0 8.0 7.2 6.8
5.6 5.2 5.2 5.6 5.1 5.2 4.3 4.6 3.7 3.9 4.0 5.2 4.7 4.8 4.8 5.1 4.4 nan nan nan nan 4.2 4.4 4.9 nan nan nan nan nan nan 3.0 4.5 4.8 5.0 6.0 7.2 7.4 7.1 7.4 7.1 8.2 8.6 8.8
4.8 6.0 6.3 5.6 4.6 5.2 3.7 3.5 3.6 4.2 4.7 4.6 4.8 4.7 4.4 4.5 4.6 3.7 3.3 2.9 3.2 3.7 nan 3.8 nan 3.6 nan nan 3.4 3.5 4.7 5.1 5.6 5.8 6.6 7.3 6.8 6.8 7.4 6.9 6.7 6.9 6.7
6.2 7.4 5.7 5.1 5.1 5.4 5.1 4.0 4.3 3.9 4.2 4.5 4.3 4.6 5.1 4.9 5.0 4.3 3.7 3.5 3.5 3.8 3.7 4.4 4.7 5.1 5.2 5.2 4.6 4.8 5.3 5.4 5.7 5.9 6.4 6.9 7.2 7.2 7.4 6.6 7.1 6.6 6.5
8.2 6.7 5.9 5.7 5.6 5.7 5.6 5.3 nan nan nan nan nan 3.7 3.4 nan nan nan nan nan nan nan 4.2 4.9 5.9 6.1 6.7 6.6 6.4 6.9 6.5 6.0 6.6 6.7 6.7 6.8 7.2 7.4 7.6 7.2 6.9 7.0 7.5
7.3 8.6 7.4 7.3 7.3 6.8 6.4 6.1 7.3 5.4 nan nan nan nan nan nan nan nan nan nan nan nan 4.3 5.3 6.0 6.4 6.2 6.4 6.5 7.5 8.1 8.1 8.3 7.0 7.3 7.5 7.4 7.1 6.8 7.6 7.7 7.6 7.2
7.6 3.0 6.6 6.7 6.5 6.4 6.2 6.1 5.9 6.4 6.9 6.8 nan nan nan nan nan nan nan nan 4.2 nan 4.4 5.0 5.8 5.7 6.0 6.1 6.5 7.8 8.0 7.2 7.2 7.3 7.5 7.0 6.9 6.7 7.1 6.9 7.4 7.0 7.2
8.4 7.8 7.6 7.3 7.2 6.8 6.8 7.0 6.6 7.1 7.3 7.2 7.6 6.0 3.7 nan nan nan nan 4.4 4.9 5.3 5.3 5.2 5.2 5.5 6.0 5.7 5.6 5.3 7.2 7.3 6.9 6.2 6.3 6.6 6.8 6.6 6.8 7.2 7.6 5.5 5.6
8.9 3.9 6.6 7.7 8.0 8.0 8.5 8.4 8.9 8.8 8.7 8.5 8.4 8.4 5.9 5.2 5.2 4.8 4.4 4.2 4.6 5.0 5.3 5.5 5.3 5.2 5.2 5.3 5.1 5.1 6.2 6.3 6.5 6.0 6.0 6.2 6.5 6.5 7.7 6.9 7.0 7.5 6.9
8.5 8.9 3.0 9.0 8.6 8.4 8.4 8.8 9.1 8.5 8.8 8.4 8.8 7.9 nan 6.2 7.2 5.9 5.6 5.5 5.0 5.0 5.7 5.4 5.3 5.1 4.9 4.8 5.0 5.1 5.9 7.0 6.5 6.3 5.8 5.9 6.5 6.4 7.0 7.7 7.0 6.9 6.9
8.7 8.6 8.6 8.5 9.5 9.2 8.7 9.5 9.3 9.2 9.4 9.6 10.0 8.7 nan 6.9 6.8 7.0 6.5 5.8 5.3 5.1 4.9 5.3 5.2 5.0 5.0 5.1 5.3 5.4 6.3 6.5 6.2 6.4 6.8 6.8 6.5 6.8 6.8 7.6 7.4 7.6 7.1
9.6 10.3 9.9 10.0 9.9 4.5 9.4 8.8 9.3 9.3 9.7 9.3 9.5 9.7 8.8 7.7 7.4 7.3 6.3 6.0 6.1 6.2 6.0 5.8 6.0 6.1 5.8 5.5 5.6 5.8 6.5 6.7 6.7 6.2 7.2 7.1 7.2 6.8 7.0 7.3 7.5 7.4 7.4
10.4 10.3 10.4 9.3 9.8 10.4 9.7 9.5 10.0 4.2 9.8 9.5 8.1 8.7 10.3 9.3 7.9 8.1 7.7 6.9 7.1 6.1 6.6 6.3 6.6 6.8 6.5 5.5 5.0 4.9 4.8 4.7 5.2 5.9 6.3 7.5 7.5 7.2 7.9 7.4 8.0 7.9 8.6
9.9 10.7 10.5 10.8 9.1 10.0 10.3 9.5 10.8 9.4 8.8 9.6 8.9 10.1 10.1 10.4 10.0 8.6 8.3 8.4 7.6 7.4 7.6 7.3 7.1 7.1 7.1 7.0 6.3 5.5 5.0 3.0 5.0 3.0 6.9 7.8 7.4 7.3 7.6 8.0 8.1 8.6 8.8
11.2 11.0 10.8 10.6 10.8 10.2 10.0 10.0 9.8 10.7 9.7 9.4 9.8 9.8 10.5 10.6 10.4 9.5 9.8 9.6 9.5 8.6 8.1 7.5 7.3 7.5 7.7 7.3 7.1 3.7 3.0 3.0 6.0 3.0 7.0 8.3 8.0 8.3 8.3 8.3 8.5 8.6 9.1